When you browse on this site, cookies collect data to enhance your experience and personalize the content and advertising you see.
Visit our Privacy Policy to learn more. By continuing to use the site, you agree to this use of cookies and data.
  • In Latvia
  • List of Countries
  • For 7 days
  • Water Temperature
  • Satellite Maps
  • Weather Map
  • Weather Widgets
  • user-avatar
    Login

    Hourly Weather Sumgayit

    Today, 22 May, Wednesday

    Time Temperature Precipitation Wind Pressure Humidity
    00:00 +17°C° 0 mm 3 mps 744 mmHg 50%
    01:00 +17°C° 0 mm 2 mps 744 mmHg 52%
    02:00 +17°C° 0 mm 2 mps 744 mmHg 53%
    03:00 +16°C° 0 mm 1 mps 743 mmHg 55%
    04:00 +18°C° 0 mm 1 mps 743 mmHg 54%
    05:00 +18°C° 0 mm 1 mps 743 mmHg 52%
    06:00 +16°C° 0 mm 0 mps 743 mmHg 50%
    07:00 +19°C° 0 mm 1 mps 743 mmHg 47%
    08:00 +20°C° 0 mm 2 mps 743 mmHg 43%
    09:00 +21°C° 0 mm 3 mps 743 mmHg 40%
    10:00 +22°C° 0 mm 3 mps 742 mmHg 38%
    11:00 +23°C° 0 mm 4 mps 742 mmHg 37%
    12:00 +25°C° 0 mm 5 mps 742 mmHg 35%
    13:00 +25°C° 0 mm 5 mps 741 mmHg 34%
    14:00 +24°C° 0 mm 6 mps 741 mmHg 33%
    15:00 +24°C° 0 mm 6 mps 740 mmHg 31%
    16:00 +24°C° 0 mm 6 mps 740 mmHg 33%
    17:00 +23°C° 0 mm 6 mps 740 mmHg 34%
    18:00 +22°C° 0 mm 6 mps 740 mmHg 35%
    19:00 +22°C° 0 mm 6 mps 739 mmHg 40%
    20:00 +21°C° 0 mm 5 mps 739 mmHg 45%
    21:00 +20°C° 0 mm 5 mps 739 mmHg 49%
    22:00 +20°C° 0 mm 5 mps 739 mmHg 51%
    23:00 +20°C° 0 mm 6 mps 739 mmHg 53%

    Tomorrow, 23 May, Thursday

    Time Temperature Precipitation Wind Pressure Humidity
    00:00 +20°C° 0 mm 6 mps 738 mmHg 55%
    01:00 +19°C° 0 mm 5 mps 738 mmHg 56%
    02:00 +19°C° 0 mm 4 mps 738 mmHg 58%
    03:00 +19°C° 0 mm 4 mps 738 mmHg 60%
    04:00 +19°C° 0 mm 3 mps 738 mmHg 58%
    05:00 +19°C° 0 mm 2 mps 738 mmHg 56%
    06:00 +20°C° 0 mm 1 mps 738 mmHg 54%
    07:00 +21°C° 0 mm 1 mps 738 mmHg 50%
    08:00 +23°C° 0 mm 1 mps 738 mmHg 47%
    09:00 +24°C° 0 mm 2 mps 738 mmHg 44%
    10:00 +25°C° 0 mm 2 mps 738 mmHg 41%
    11:00 +26°C° 0 mm 2 mps 738 mmHg 38%
    12:00 +27°C° 0 mm 2 mps 738 mmHg 35%
    13:00 +27°C° 0 mm 3 mps 738 mmHg 35%
    14:00 +27°C° 0 mm 3 mps 737 mmHg 35%
    15:00 +28°C° 0 mm 4 mps 737 mmHg 35%
    16:00 +27°C° 0 mm 4 mps 737 mmHg 39%
    17:00 +26°C° 0 mm 4 mps 737 mmHg 44%
    18:00 +25°C° 0 mm 4 mps 737 mmHg 49%
    19:00 +23°C° 0.2 mm 4 mps 738 mmHg 51%
    20:00 +22°C° 0.2 mm 3 mps 738 mmHg 54%
    21:00 +22°C° 0.2 mm 3 mps 738 mmHg 56%
    22:00 +23°C° 0 mm 2 mps 738 mmHg 57%
    23:00 +22°C° 0 mm 1 mps 738 mmHg 58%

    Day after tomorrow, 24 May, Friday

    Time Temperature Precipitation Wind Pressure Humidity
    00:00 +22°C° 0 mm 1 mps 738 mmHg 59%
    01:00 +22°C° 0 mm 1 mps 738 mmHg 61%
    02:00 +22°C° 0 mm 1 mps 738 mmHg 63%
    03:00 +21°C° 0 mm 1 mps 738 mmHg 65%
    04:00 +21°C° 0 mm 1 mps 738 mmHg 63%
    05:00 +22°C° 0 mm 1 mps 738 mmHg 61%
    06:00 +20°C° 0 mm 0 mps 739 mmHg 58%
    07:00 +23°C° 0 mm 1 mps 739 mmHg 54%
    08:00 +24°C° 0 mm 2 mps 739 mmHg 50%
    09:00 +25°C° 0 mm 2 mps 740 mmHg 46%
    10:00 +26°C° 0 mm 3 mps 740 mmHg 44%
    11:00 +27°C° 0 mm 4 mps 739 mmHg 41%
    12:00 +28°C° 0 mm 4 mps 739 mmHg 39%
    13:00 +28°C° 0 mm 5 mps 739 mmHg 40%
    14:00 +28°C° 0 mm 5 mps 739 mmHg 40%
    15:00 +28°C° 0 mm 5 mps 739 mmHg 41%
    16:00 +27°C° 0 mm 5 mps 739 mmHg 44%
    17:00 +26°C° 0 mm 5 mps 739 mmHg 48%
    18:00 +25°C° 0 mm 5 mps 739 mmHg 51%
    19:00 +23°C° 0 mm 4 mps 739 mmHg 53%
    20:00 +24°C° 0 mm 3 mps 740 mmHg 55%
    21:00 +22°C° 0 mm 3 mps 740 mmHg 58%
    22:00 +22°C° 0 mm 3 mps 740 mmHg 58%
    23:00 +22°C° 0 mm 3 mps 740 mmHg 59%

    25 May, Saturday

    Time Temperature Precipitation Wind Pressure Humidity
    00:00 +22°C° 0 mm 3 mps 740 mmHg 60%
    01:00 +21°C° 0 mm 3 mps 740 mmHg 62%
    02:00 +21°C° 0 mm 3 mps 740 mmHg 63%
    03:00 +21°C° 0 mm 3 mps 740 mmHg 64%
    04:00 +21°C° 0 mm 4 mps 740 mmHg 63%
    05:00 +21°C° 0 mm 4 mps 739 mmHg 61%
    06:00 +22°C° 0 mm 5 mps 739 mmHg 59%
    07:00 +23°C° 0 mm 6 mps 739 mmHg 57%
    08:00 +24°C° 0 mm 7 mps 739 mmHg 54%
    09:00 +26°C° 0 mm 8 mps 739 mmHg 51%
    10:00 +27°C° 0 mm 8 mps 739 mmHg 49%
    11:00 +28°C° 0 mm 8 mps 738 mmHg 47%
    12:00 +29°C° 0 mm 9 mps 738 mmHg 45%
    13:00 +29°C° 0 mm 9 mps 738 mmHg 44%
    14:00 +29°C° 0 mm 9 mps 737 mmHg 43%
    15:00 +29°C° 0 mm 9 mps 736 mmHg 43%
    16:00 +28°C° 0 mm 9 mps 736 mmHg 46%
    17:00 +27°C° 0 mm 8 mps 736 mmHg 49%
    18:00 +26°C° 0 mm 8 mps 735 mmHg 52%
    19:00 +26°C° 0 mm 7 mps 736 mmHg 54%
    20:00 +24°C° 0 mm 7 mps 736 mmHg 57%
    21:00 +24°C° 0 mm 7 mps 736 mmHg 59%
    22:00 +24°C° 0.1 mm 6 mps 736 mmHg 58%
    23:00 +24°C° 0.1 mm 6 mps 735 mmHg 58%

    26 May, Sunday

    Time Temperature Precipitation Wind Pressure Humidity
    00:00 +24°C° 0.1 mm 6 mps 735 mmHg 58%
    01:00 +24°C° 0 mm 6 mps 735 mmHg 54%
    02:00 +24°C° 0 mm 6 mps 735 mmHg 50%
    03:00 +24°C° 0 mm 6 mps 734 mmHg 47%
    04:00 +26°C° 0 mm 5 mps 735 mmHg 43%
    05:00 +26°C° 0 mm 4 mps 735 mmHg 38%
    06:00 +26°C° 0 mm 3 mps 735 mmHg 34%
    07:00 +28°C° 0 mm 3 mps 736 mmHg 32%
    08:00 +29°C° 0 mm 3 mps 736 mmHg 30%
    09:00 +31°C° 0 mm 3 mps 736 mmHg 28%
    10:00 +32°C° 0 mm 4 mps 736 mmHg 31%
    11:00 +32°C° 0 mm 5 mps 736 mmHg 34%
    12:00 +32°C° 0 mm 6 mps 736 mmHg 37%
    13:00 +32°C° 0 mm 7 mps 736 mmHg 38%
    14:00 +32°C° 0 mm 8 mps 736 mmHg 40%
    15:00 +31°C° 0 mm 10 mps 736 mmHg 42%
    16:00 +29°C° 0 mm 9 mps 736 mmHg 45%
    17:00 +28°C° 0 mm 9 mps 736 mmHg 48%
    18:00 +28°C° 0 mm 9 mps 737 mmHg 51%
    19:00 +27°C° 0.4 mm 9 mps 737 mmHg 52%
    20:00 +26°C° 0.4 mm 8 mps 737 mmHg 54%
    21:00 +26°C° 0.4 mm 8 mps 738 mmHg 56%
    22:00 +26°C° 1.1 mm 7 mps 738 mmHg 56%
    23:00 +24°C° 1.1 mm 6 mps 738 mmHg 56%

    27 May, Monday

    Time Temperature Precipitation Wind Pressure Humidity
    00:00 +24°C° 1.1 mm 6 mps 738 mmHg 56%
    01:00 +23°C° 1.4 mm 5 mps 738 mmHg 58%
    02:00 +23°C° 1.4 mm 4 mps 738 mmHg 60%
    03:00 +24°C° 1.4 mm 3 mps 738 mmHg 62%
    04:00 +24°C° 0.8 mm 3 mps 739 mmHg 59%
    05:00 +24°C° 0.8 mm 3 mps 739 mmHg 57%
    06:00 +24°C° 0.8 mm 3 mps 740 mmHg 55%
    07:00 +25°C° 0.3 mm 4 mps 740 mmHg 51%
    08:00 +26°C° 0.3 mm 5 mps 740 mmHg 47%
    09:00 +27°C° 0.3 mm 6 mps 741 mmHg 43%
    10:00 +28°C° 0 mm 7 mps 741 mmHg 43%
    11:00 +28°C° 0 mm 8 mps 741 mmHg 43%
    12:00 +28°C° 0 mm 9 mps 741 mmHg 43%
    13:00 +28°C° 0 mm 9 mps 741 mmHg 44%
    14:00 +28°C° 0 mm 9 mps 741 mmHg 45%
    15:00 +27°C° 0 mm 9 mps 741 mmHg 46%
    16:00 +26°C° 0 mm 9 mps 741 mmHg 49%
    17:00 +26°C° 0 mm 9 mps 741 mmHg 51%
    18:00 +24°C° 0 mm 9 mps 742 mmHg 53%
    19:00 +23°C° 0 mm 8 mps 742 mmHg 53%
    20:00 +23°C° 0 mm 7 mps 742 mmHg 53%
    21:00 +23°C° 0 mm 6 mps 743 mmHg 53%
    22:00 +23°C° 0 mm 5 mps 743 mmHg 53%
    23:00 +23°C° 0 mm 4 mps 743 mmHg 53%
    Show more